EWG1PE EDDC-EDDK

Flight info

Callsign EWG1PE
Flight time N/A
Altitude 34000
Route OSKAN9E OSKAN M748 BOLBO L986 POVEL Q201 PODER Z189 RUNER/N0400F240 T858 KOPAG KOPAG13
Aircraft A319/M-SDE3FGHIRWY/LB1

Departure

Time 2026-04-28 12:38
Airport Dresden Airport (EDDC)

Arrival

Time N/A
Airport Cologne Bonn Airport (EDDK)
Time Latitude Longitude Altitude Speed Heading
2026-04-28 12:06 51.12626 13.76540 753 ft 0 kts 221°
2026-04-28 12:29 51.12640 13.76560 749 ft 4 kts 221°
2026-04-28 12:29 51.12661 13.76588 749 ft 4 kts 221°
2026-04-28 12:29 51.12678 13.76611 750 ft 4 kts 227°
2026-04-28 12:30 51.12686 13.76642 749 ft 4 kts 291°
2026-04-28 12:30 51.12672 13.76674 748 ft 4 kts 311°
2026-04-28 12:30 51.12666 13.76685 749 ft 0 kts 311°
2026-04-28 12:33 51.12667 13.76683 749 ft 0 kts 311°
2026-04-28 12:33 51.12676 13.76667 749 ft 3 kts 311°
2026-04-28 12:34 51.12696 13.76631 752 ft 6 kts 311°
2026-04-28 12:34 51.12726 13.76576 749 ft 8 kts 311°
2026-04-28 12:34 51.12763 13.76507 754 ft 8 kts 311°
2026-04-28 12:34 51.12800 13.76433 751 ft 9 kts 295°
2026-04-28 12:35 51.12763 13.76353 754 ft 10 kts 220°
2026-04-28 12:35 51.12712 13.76284 756 ft 10 kts 220°
2026-04-28 12:35 51.12660 13.76213 755 ft 10 kts 220°
2026-04-28 12:35 51.12607 13.76140 759 ft 10 kts 221°
2026-04-28 12:36 51.12587 13.76040 761 ft 11 kts 297°
2026-04-28 12:36 51.12641 13.75936 762 ft 13 kts 310°
2026-04-28 12:36 51.12699 13.75831 763 ft 9 kts 315°
2026-04-28 12:36 51.12751 13.75856 762 ft 6 kts 42°
2026-04-28 12:37 51.12773 13.75886 762 ft 21 kts 41°
2026-04-28 12:37 51.13044 13.76260 753 ft 81 kts 41°
2026-04-28 12:37 51.13621 13.77055 734 ft 137 kts 41°
2026-04-28 12:37 51.14412 13.78141 1118 ft 151 kts 45°
2026-04-28 12:38 51.14926 13.78897 1605 ft 151 kts 44°
2026-04-28 12:38 51.15691 13.80045 2267 ft 157 kts 43°
2026-04-28 12:38 51.16562 13.81292 2615 ft 178 kts 41°
2026-04-28 12:38 51.17569 13.82695 3016 ft 204 kts 41°
2026-04-28 12:39 51.19181 13.84572 3917 ft 233 kts 23°
2026-04-28 12:39 51.20857 13.84835 4678 ft 253 kts 356°
2026-04-28 12:39 51.22052 13.84641 5322 ft 258 kts 355°
2026-04-28 12:39 51.23856 13.84326 6248 ft 264 kts 355°
2026-04-28 12:40 51.25696 13.83988 7245 ft 267 kts 354°
2026-04-28 12:40 51.27549 13.83644 8236 ft 268 kts 354°
2026-04-28 12:40 51.29408 13.83305 9251 ft 270 kts 353°
2026-04-28 12:40 51.31246 13.82655 10226 ft 273 kts 340°
2026-04-28 12:41 51.32937 13.81239 11009 ft 280 kts 325°
2026-04-28 12:41 51.34503 13.79162 11331 ft 304 kts 320°
2026-04-28 12:41 51.36137 13.76863 11811 ft 319 kts 319°
2026-04-28 12:41 51.37814 13.74487 12548 ft 325 kts 319°
2026-04-28 12:42 51.39494 13.72106 13304 ft 329 kts 319°
2026-04-28 12:42 51.41217 13.69664 14090 ft 333 kts 319°
2026-04-28 12:42 51.42956 13.67199 14817 ft 335 kts 319°
2026-04-28 12:42 51.44712 13.64712 15523 ft 338 kts 319°
2026-04-28 12:43 51.46482 13.62205 16206 ft 342 kts 319°
2026-04-28 12:43 51.48275 13.59670 16881 ft 345 kts 319°
2026-04-28 12:43 51.50084 13.57113 17587 ft 348 kts 319°
2026-04-28 12:43 51.51912 13.54528 18270 ft 352 kts 319°
2026-04-28 12:44 51.53759 13.51913 18887 ft 355 kts 319°
2026-04-28 12:44 51.55620 13.49273 19488 ft 358 kts 319°
2026-04-28 12:44 51.57493 13.46613 20113 ft 361 kts 319°
2026-04-28 12:44 51.59381 13.43929 20736 ft 363 kts 319°
2026-04-28 12:45 51.61281 13.41220 21356 ft 366 kts 319°
2026-04-28 12:45 51.63192 13.38488 21953 ft 369 kts 319°
2026-04-28 12:45 51.65117 13.35734 22565 ft 371 kts 319°
2026-04-28 12:45 51.67056 13.32966 23135 ft 374 kts 319°
2026-04-28 12:46 51.69007 13.30176 23692 ft 377 kts 318°
2026-04-28 12:46 51.70975 13.27356 24189 ft 379 kts 318°
2026-04-28 12:46 51.72952 13.24516 24654 ft 382 kts 318°
2026-04-28 12:46 51.74937 13.21656 25115 ft 384 kts 318°
2026-04-28 12:47 51.76907 13.18725 25552 ft 386 kts 314°
2026-04-28 12:47 51.78586 13.15323 25980 ft 390 kts 303°
2026-04-28 12:47 51.79856 13.11442 26417 ft 394 kts 294°
2026-04-28 12:47 51.80680 13.07194 26843 ft 398 kts 285°
2026-04-28 12:48 51.81340 13.02838 27282 ft 401 kts 285°
2026-04-28 12:48 51.82000 12.98504 27721 ft 403 kts 285°
2026-04-28 12:48 51.82675 12.94088 28158 ft 406 kts 285°
2026-04-28 12:48 51.83353 12.89644 28605 ft 408 kts 285°
2026-04-28 12:49 51.84030 12.85174 29028 ft 411 kts 285°
2026-04-28 12:49 51.84707 12.80671 29444 ft 413 kts 285°
2026-04-28 12:49 51.85386 12.76141 29850 ft 415 kts 285°
2026-04-28 12:49 51.86069 12.71585 30215 ft 419 kts 285°
2026-04-28 12:50 51.86754 12.66992 30528 ft 422 kts 285°
2026-04-28 12:50 51.87443 12.62360 30843 ft 424 kts 285°
2026-04-28 12:50 51.88134 12.57707 31162 ft 426 kts 285°
2026-04-28 12:50 51.88823 12.53034 31481 ft 428 kts 285°
2026-04-28 12:51 51.89513 12.48334 31798 ft 430 kts 285°
2026-04-28 12:51 51.90204 12.43633 32223 ft 429 kts 285°
2026-04-28 12:51 51.90898 12.38945 32673 ft 427 kts 285°
2026-04-28 12:51 51.91591 12.34278 33124 ft 426 kts 285°
2026-04-28 12:52 51.92281 12.29615 33577 ft 425 kts 285°
2026-04-28 12:52 51.92963 12.24965 33964 ft 425 kts 285°
2026-04-28 12:52 51.93646 12.20302 34264 ft 426 kts 285°
2026-04-28 12:53 51.94987 12.11080 34315 ft 416 kts 285°
2026-04-28 12:53 51.96296 12.01951 34316 ft 415 kts 284°
2026-04-28 12:54 51.97594 11.92841 34317 ft 415 kts 284°
2026-04-28 12:54 51.98891 11.83724 34318 ft 415 kts 284°
2026-04-28 12:55 52.00174 11.74656 34309 ft 415 kts 284°
2026-04-28 12:55 52.01468 11.65515 34302 ft 416 kts 284°
2026-04-28 12:56 52.02759 11.56359 34303 ft 416 kts 284°
2026-04-28 12:56 52.04048 11.47191 34299 ft 416 kts 284°
2026-04-28 12:57 52.05321 11.38018 34301 ft 416 kts 284°
2026-04-28 12:57 52.06589 11.28831 34295 ft 417 kts 284°
2026-04-28 12:58 52.07855 11.19612 34292 ft 418 kts 284°
2026-04-28 12:58 52.09113 11.10374 34297 ft 419 kts 284°
2026-04-28 12:59 52.10368 11.01125 34301 ft 419 kts 284°
2026-04-28 12:59 52.11618 10.91862 34301 ft 419 kts 284°
2026-04-28 13:00 52.12103 10.82417 34285 ft 423 kts 266°
2026-04-28 13:00 52.10632 10.73112 34294 ft 429 kts 252°
2026-04-28 13:01 52.08520 10.64019 34295 ft 430 kts 252°
2026-04-28 13:01 52.06413 10.54920 34294 ft 430 kts 252°
2026-04-28 13:02 52.04297 10.45816 34300 ft 430 kts 251°
2026-04-28 13:02 52.02192 10.36819 34308 ft 428 kts 252°
2026-04-28 13:03 52.00075 10.27794 34287 ft 428 kts 251°
2026-04-28 13:03 51.97951 10.18777 34283 ft 428 kts 251°
2026-04-28 13:04 51.95815 10.09764 34281 ft 429 kts 251°
2026-04-28 13:04 51.93668 10.00744 34277 ft 429 kts 251°
2026-04-28 13:05 51.91516 9.91732 34274 ft 429 kts 251°
2026-04-28 13:05 51.89349 9.82714 33881 ft 430 kts 251°
2026-04-28 13:05 51.88264 9.78199 33414 ft 430 kts 251°
2026-04-28 13:06 51.87180 9.73695 32925 ft 429 kts 251°